Change the Weather History Date:

Sunday, March 31, 2013

  Actual Average (LTBL) Record (LTBL)
Temperature  
Mean Temperature 63 °F -  
Max Temperature 71 °F 61 °F 75 °F (2009)
Min Temperature 55 °F 43 °F 34 °F (2014)
Degree Days  
Heating Degree Days 2    
Growing Degree Days 13 (Base 50)    
Moisture  
Dew Point 52 °F    
Average Humidity 64    
Maximum Humidity 88    
Minimum Humidity 43    
Precipitation  
Precipitation 0.00 in - - ()
Sea Level Pressure  
Sea Level Pressure 29.80 in    
Wind  
Wind Speed 6 mph ()    
Max Wind Speed 14 mph    
Max Gust Speed -    
Visibility 6.2 miles    
Events      
Averages and records for this station are not official NWS values.
T = Trace of Precipitation, MM = Missing Value Source: Averaged Metar Reports

Daily Weather History Graph

Daily Weather History Graph

Search for Another Location

Airport or City:

Trip Planner

Search our weather history database for the weather conditions in past years. The results will help you decide how hot, cold, wet, or windy it might be!

Date:

Astronomy

Mar. 31, 2013 Rise Set
Actual Time 7:02 AM EEST 7:37 PM EEST
Civil Twilight 6:35 AM EEST 8:04 PM EEST
Nautical Twilight 6:04 AM EEST 8:35 PM EEST
Astronomical Twilight 5:31 AM EEST 9:08 PM EEST
Moon No Moon Rise 9:35 AM EEST (3/31)
Length of Visible Light 13h 28m
Length of Day
12h 35m
Waning Gibbous, 80% of the Moon is Illuminated
Mar 31
Waning Gibbous
Apr 3
Last Quarter
Apr 10
New
Apr 18
First Quarter
Apr 25
Full

Hourly Weather History & Observations

Time (EEST) Temp. Dew Point Humidity Pressure Visibility Wind Dir Wind Speed Gust Speed Precip Events Conditions
1:50 AM 62.6 °F 53.6 °F 72% 29.86 in - SW 5.8 mph - N/A   Clear
4:50 AM 55.4 °F 50.0 °F 82% 29.83 in - SSW 4.6 mph - N/A   Clear
5:50 AM 55.4 °F 51.8 °F 88% 29.83 in - SSW 4.6 mph - N/A   Clear
6:50 AM 57.2 °F 50.0 °F 77% 29.83 in - SSW 4.6 mph - N/A   Clear
7:50 AM 59.0 °F 51.8 °F 77% 29.83 in - SSW 3.5 mph - N/A   Clear
8:50 AM 62.6 °F 55.4 °F 77% 29.83 in - SSW 6.9 mph - N/A   Clear
9:50 AM 66.2 °F 53.6 °F 64% 29.83 in - South 6.9 mph - N/A   Clear
10:50 AM 66.2 °F 53.6 °F 64% 29.80 in - South 8.1 mph - N/A   Clear
11:50 AM 68.0 °F 51.8 °F 56% 29.80 in - South 9.2 mph - N/A   Clear
12:50 PM 68.0 °F 53.6 °F 60% 29.80 in - South 6.9 mph - N/A   Clear
1:50 PM 68.0 °F 51.8 °F 56% 29.80 in - SSW 11.5 mph - N/A   Clear
2:50 PM 69.8 °F 48.2 °F 46% 29.77 in - South 13.8 mph - N/A   Clear
3:50 PM 71.6 °F 50.0 °F 46% 29.77 in - South 11.5 mph - N/A   Clear
4:50 PM 71.6 °F 48.2 °F 43% 29.77 in - South 8.1 mph - N/A   Clear
5:50 PM 69.8 °F 51.8 °F 53% 29.77 in 6.2 mi SSW 11.5 mph - N/A   Overcast
6:50 PM 68.0 °F 51.8 °F 56% 29.77 in 6.2 mi SSW 5.8 mph - N/A   Overcast
7:50 PM 66.2 °F 50.0 °F 56% 29.77 in 6.2 mi South 4.6 mph - N/A   Mostly Cloudy
8:50 PM 64.4 °F 51.8 °F 64% 29.77 in 6.2 mi South 3.5 mph - N/A   Overcast
9:50 PM 66.2 °F 51.8 °F 60% 29.77 in 6.2 mi Variable 3.5 mph - N/A   Overcast
10:50 PM 62.6 °F 53.6 °F 72% 29.77 in 6.2 mi SSW 5.8 mph - N/A   Overcast
11:50 PM 62.6 °F 53.6 °F 72% 29.77 in 6.2 mi SW 4.6 mph - N/A   Overcast